This is the latest recevied weather packets stored in our database for station/object VR2OT-10. If no packets are shown the sender has not sent any weather packets the latest 10 day(s).
| Time | Temp. | Humidity | Pressure | Rain* | Wind** | Luminosity | Snow |
|---|---|---|---|---|---|---|---|
| 1778018537 | 21.11° C | 88% | 1012.7 hPa | - | 2.24 m/s, 90° | - | - |
| 1778015837 | 21.11° C | 88% | 1012.6 hPa | - | 2.24 m/s, 135° | - | - |
| 1778014939 | 21.11° C | 87% | 1012.3 hPa | - | 3.13 m/s, 135° | - | - |
| 1778013138 | 21.11° C | 86% | 1012.2 hPa | - | 2.68 m/s, 90° | - | - |
| 1778012237 | 21.11° C | 87% | 1012.3 hPa | - | 2.68 m/s, 135° | - | - |
| 1778011338 | 21.11° C | 86% | 1012.2 hPa | - | 2.68 m/s, 135° | - | - |
| 1778009538 | 21.11° C | 87% | 1012.2 hPa | - | 3.58 m/s, 135° | - | - |
| 1778005939 | 21.11° C | 88% | 1012.4 hPa | - | 4.02 m/s, 135° | - | - |
| 1778005038 | 21.11° C | 88% | 1012.3 hPa | - | 3.13 m/s, 90° | - | - |
| 1778002338 | 20.56° C | 89% | 1012.5 hPa | - | 3.58 m/s, 90° | - | - |
| 1778001438 | 21.11° C | 89% | 1012.7 hPa | - | 4.02 m/s, 90° | - | - |
| 1778000539 | 20.56° C | 92% | 1012.8 hPa | - | 4.02 m/s, 90° | - | - |
| 1777999638 | 20.56° C | 92% | 1012.9 hPa | - | 4.02 m/s, 90° | - | - |
| 1777997838 | 20.56° C | 93% | 1013.1 hPa | - | 3.58 m/s, 135° | - | - |
| 1777987038 | 20° C | 93% | 1013.7 hPa | - | 3.13 m/s, 90° | - | - |
| 1777980737 | 20° C | 93% | 1013.1 hPa | - | 0.45 m/s, 135° | - | - |
| 1777979838 | 20° C | 92% | 1013 hPa | - | 0.45 m/s, 90° | - | - |
| 1777978939 | 20° C | 91% | 1012.9 hPa | - | 1.79 m/s, 135° | - | - |
| 1777978038 | 20° C | 92% | 1012.8 hPa | - | 1.79 m/s, 135° | - | - |
| 1777977138 | 20° C | 91% | 1012.8 hPa | - | 1.79 m/s, 90° | - | - |
| 1777976238 | 20° C | 91% | 1012.7 hPa | - | 3.13 m/s, 90° | - | - |
| 1777975338 | 20° C | 90% | 1012.6 hPa | - | 1.79 m/s, 90° | - | - |
| 1777974438 | 20° C | 89% | 1012.5 hPa | - | 1.34 m/s, 135° | - | - |
| 1777973538 | 20° C | 89% | 1012.4 hPa | - | 3.13 m/s, 135° | - | - |
| 1777972637 | 20° C | 90% | 1012.5 hPa | - | 3.13 m/s, 135° | - | - |
* Rain since midnight (hover to see other rain measurements)
** Current wind speed in m/s (hover to see current wind gust speed)